スコッティ彗星

202P/Scotti (2024)

English version
Home page
Updated on May 13, 2024

---------------------------------------------------------------------

・ プロフィール

・ 写真集

・ 軌道要素

Epoch 2023 Sept. 13.0 TT = JDT 2460200.5
T 2024 May 17.15673 TT                                  Rudenko
q   3.0692109            (2000.0)            P               Q
n   0.11809440     Peri.  274.44220     -0.03118241     -0.99951221
a   4.1144947      Node   177.34286     +0.93122077     -0.02968158
e   0.2540491      Incl.    2.14195     +0.36311918     -0.00971334
P   8.35
>From 460 observations 2001 Dec. 10-2023 Dec. 4, mean residual 0".7.
     Nongravitational parameters A1 = +0.08, A2 = +0.0157.

・ 光度変化

        m1 = 13.0 + 5 logΔ + 10.0 log r

---------------------------------------------------------------------

軌道要素はM.P.E.C. 2023-X256に掲載されたものです。
光度グラフはComet for Windowsで作成したものです。

---------------------------------------------------------------------

Copyright(C) Seiichi Yoshida (comet@aerith.net). All rights reserved.